Regional Weather Roundup
Issued by NWS Green Bay, WI

Home | Current Version | Previous Version | Graphics & Text | Print | Product List | Glossary Off
Versions: 1 2 3 4 5 6 7 8 9 10 11 12 13 14 15 16 17 18 19 20 21 22 23 24 25 26 27 28 29 30 31 32 33 34 35 36 37 38 39 40 41 42 43 44 45 46 47 48 49 50

000
ASUS43 KGRB 250810
RWRGRB

NORTH-CENTRAL AND NORTHEAST WISCONSIN REGIONAL WEATHER ROUNDUP
NATIONAL WEATHER SERVICE GREEN BAY WI
300 AM CDT SAT APR 25 2015

WIZ005-009-010>012-018-019-250900-
NORTH CENTRAL WISCONSIN

CITY           SKY/WX    TMP DP  RH WIND       PRES   REMARKS
IRONWOOD       CLOUDY    39  27  60 E6        29.90S
MANITOWISH WTR CLOUDY    39  29  67 SE6       29.91S
ARBOR VITAE    CLOUDY    39  28  63 SE7       29.91S
EAGLE RIVER    CLOUDY    36  22  57 SE6       29.92S
LAND O LAKES   CLOUDY    37  29  72 SE5       29.94R
RHINELANDER    CLOUDY    37  22  54 E10       29.92F
PHILLIPS       CLOUDY    37  27  68 E6        29.90S
ANTIGO         CLOUDY    35  21  56 E7        29.92S
TOMAHAWK       CLOUDY    38  23  55 CALM      29.91F
MERRILL        CLOUDY    38  23  54 E7        29.91S
$$

WIZ013-073-250900-
NORTHEAST WISCONSIN

CITY           SKY/WX    TMP DP  RH WIND       PRES   REMARKS
IRON MOUNTAIN  CLOUDY    34  21  59 NE3       29.95F
MARINETTE      CLOUDY    37  27  65 E10       29.96F
OCONTO         CLOUDY    38  21  50 E6        29.96F
$$

WIZ017-030-035>037-045-250900-
CENTRAL WISCONSIN

CITY           SKY/WX    TMP DP  RH WIND       PRES   REMARKS
MEDFORD        CLOUDY    38  28  69 E7        29.89S
WAUSAU         CLOUDY    38  25  59 E10       29.89F
MOSINEE        CLOUDY    36  27  69 E9        29.90F
MARSHFIELD     CLOUDY    38  34  85 E10       29.88F
WISC RAPIDS    CLOUDY    37  33  85 E8        29.90F
STEVENS POINT  CLOUDY    35  29  80 E7        29.90F
WAUPACA        CLOUDY    39  34  81 CALM      29.92F
SHAWANO        CLOUDY    41  26  55 E8        29.94F
CLINTONVILLE   CLOUDY    37  23  56 E7        29.93F
$$

WIZ038-039-048-051-250900-
FOX VALLEY

CITY           SKY/WX    TMP DP  RH WIND       PRES   REMARKS
NWS GREEN BAY  CLOUDY    41  23  48 NE7       29.93F
APPLETON       CLOUDY    37  30  75 E7        29.91F
OSHKOSH        CLOUDY    40  34  79 E13       29.90F
FOND DU LAC    CLOUDY    39  33  79 E9        29.89F
$$

WIZ022-050-052-250900-
EAST CENTRAL WISCONSIN

CITY           SKY/WX    TMP DP  RH WIND       PRES   REMARKS
STURGEON BAY   CLOUDY    36  23  60 E10       29.98F
MANITOWOC      CLOUDY    39  29  67 NE3       29.93F
SHEBOYGAN      CLOUDY    39  34  82 E7        29.91F
$$

LMZ563-521-522-541>543-250900-
LAKESHORE

STATION/POSITION TIME  TEMP    WIND        PRES    VSBY  WAVE
                       AIR SEA DIR/SP/G                  HT/PER
                 (UTC) (F)     (DEG/KT/KT) (MB)    (MI)  (FT/S)
SHEBOYGAN LKSHOR 0800   39      80/  5/  6 1013.8F
KEWAUNEE LKSHORE 0800   38      40/  7/ 10 1013.3F
NORTHPORT PIER   0800   36      90/ 11/ 14 1015.6F
SISTER BAY LKSHO 0700   39     120/  9/ 14   N/A
CHAMBERS ISLAND  0800   39      80/  4/  7 1015.9S
MENOMINEE LKSHOR 0800   40      80/ 10/ 11 1015.6F
$$



USA.gov is the U.S. government's official web portal to all federal, state and local government web resources and services.